﻿測定場所 (Monitoring sites),日付 (Measurement date),時間 (Measurement time),線量率 最大値 (max) μGy/h,線量率 最小値 (min) μGy/h,線量率 平均値 (average) μGy/h,
小平 (Kodaira),2014-09-07,23:01～24:00,0.0344,0.0313,0.0331,
小平 (Kodaira),2014-09-07,22:01～23:00,0.0350,0.0302,0.0327,
小平 (Kodaira),2014-09-07,21:01～22:00,0.0344,0.0310,0.0327,
小平 (Kodaira),2014-09-07,20:01～21:00,0.0351,0.0297,0.0324,
小平 (Kodaira),2014-09-07,19:01～20:00,0.0343,0.0306,0.0325,
小平 (Kodaira),2014-09-07,18:01～19:00,0.0341,0.0308,0.0324,
小平 (Kodaira),2014-09-07,17:01～18:00,0.0342,0.0308,0.0327,
小平 (Kodaira),2014-09-07,16:01～17:00,0.0343,0.0307,0.0323,
小平 (Kodaira),2014-09-07,15:01～16:00,0.0351,0.0307,0.0326,
小平 (Kodaira),2014-09-07,14:01～15:00,0.0346,0.0309,0.0327,
小平 (Kodaira),2014-09-07,13:01～14:00,0.0353,0.0307,0.0327,
小平 (Kodaira),2014-09-07,12:01～13:00,0.0368,0.0316,0.0337,
小平 (Kodaira),2014-09-07,11:01～12:00,0.0400,0.0340,0.0361,
小平 (Kodaira),2014-09-07,10:01～11:00,0.0418,0.0349,0.0375,
小平 (Kodaira),2014-09-07,09:01～10:00,0.0487,0.0372,0.0424,
小平 (Kodaira),2014-09-07,08:01～09:00,0.0495,0.0422,0.0461,
小平 (Kodaira),2014-09-07,07:01～08:00,0.0477,0.0360,0.0418,
小平 (Kodaira),2014-09-07,06:01～07:00,0.0409,0.0342,0.0369,
小平 (Kodaira),2014-09-07,05:01～06:00,0.0371,0.0326,0.0348,
小平 (Kodaira),2014-09-07,04:01～05:00,0.0402,0.0334,0.0356,
小平 (Kodaira),2014-09-07,03:01～04:00,0.0367,0.0323,0.0347,
小平 (Kodaira),2014-09-07,02:01～03:00,0.0358,0.0316,0.0334,
小平 (Kodaira),2014-09-07,01:01～02:00,0.0356,0.0326,0.0339,
小平 (Kodaira),2014-09-07,00:01～01:00,0.0383,0.0319,0.0348,
小平 (Kodaira),2014-09-06,23:01～24:00,0.0373,0.0337,0.0355,
小平 (Kodaira),2014-09-06,22:01～23:00,0.0444,0.0343,0.0387,
小平 (Kodaira),2014-09-06,21:01～22:00,0.0569,0.0406,0.0489,
小平 (Kodaira),2014-09-06,20:01～21:00,0.0500,0.0405,0.0460,
小平 (Kodaira),2014-09-06,19:01～20:00,0.0453,0.0334,0.0388,
小平 (Kodaira),2014-09-06,18:01～19:00,0.0353,0.0315,0.0331,
小平 (Kodaira),2014-09-06,17:01～18:00,0.0353,0.0316,0.0331,
小平 (Kodaira),2014-09-06,16:01～17:00,0.0342,0.0306,0.0328,
小平 (Kodaira),2014-09-06,15:01～16:00,0.0349,0.0307,0.0328,
小平 (Kodaira),2014-09-06,14:01～15:00,0.0352,0.0310,0.0330,
小平 (Kodaira),2014-09-06,13:01～14:00,0.0353,0.0311,0.0330,
小平 (Kodaira),2014-09-06,12:01～13:00,0.0357,0.0314,0.0337,
小平 (Kodaira),2014-09-06,11:01～12:00,0.0365,0.0319,0.0341,
小平 (Kodaira),2014-09-06,10:01～11:00,0.0360,0.0320,0.0339,
小平 (Kodaira),2014-09-06,09:01～10:00,0.0359,0.0321,0.0340,
小平 (Kodaira),2014-09-06,08:01～09:00,0.0360,0.0322,0.0340,
小平 (Kodaira),2014-09-06,07:01～08:00,0.0364,0.0322,0.0347,
小平 (Kodaira),2014-09-06,06:01～07:00,0.0369,0.0325,0.0347,
小平 (Kodaira),2014-09-06,05:01～06:00,0.0377,0.0328,0.0345,
小平 (Kodaira),2014-09-06,04:01～05:00,0.0362,0.0324,0.0343,
小平 (Kodaira),2014-09-06,03:01～04:00,0.0357,0.0319,0.0339,
小平 (Kodaira),2014-09-06,02:01～03:00,0.0364,0.0312,0.0337,
小平 (Kodaira),2014-09-06,01:01～02:00,0.0359,0.0324,0.0340,
小平 (Kodaira),2014-09-06,00:01～01:00,0.0353,0.0317,0.0335,
小平 (Kodaira),2014-09-05,23:01～24:00,0.0353,0.0314,0.0333,
小平 (Kodaira),2014-09-05,22:01～23:00,0.0350,0.0309,0.0332,
小平 (Kodaira),2014-09-05,21:01～22:00,0.0360,0.0311,0.0332,
小平 (Kodaira),2014-09-05,20:01～21:00,0.0355,0.0310,0.0334,
小平 (Kodaira),2014-09-05,19:01～20:00,0.0356,0.0301,0.0323,
小平 (Kodaira),2014-09-05,18:01～19:00,0.0352,0.0306,0.0325,
小平 (Kodaira),2014-09-05,17:01～18:00,0.0341,0.0301,0.0322,
小平 (Kodaira),2014-09-05,16:01～17:00,0.0339,0.0300,0.0322,
小平 (Kodaira),2014-09-05,15:01～16:00,0.0338,0.0297,0.0323,
小平 (Kodaira),2014-09-05,14:01～15:00,0.0345,0.0306,0.0325,
小平 (Kodaira),2014-09-05,13:01～14:00,0.0352,0.0306,0.0328,
小平 (Kodaira),2014-09-05,12:01～13:00,0.0344,0.0306,0.0323,
小平 (Kodaira),2014-09-05,11:01～12:00,0.0345,0.0299,0.0324,
小平 (Kodaira),2014-09-05,10:01～11:00,0.0341,0.0305,0.0322,
小平 (Kodaira),2014-09-05,09:01～10:00,0.0349,0.0307,0.0325,
小平 (Kodaira),2014-09-05,08:01～09:00,0.0346,0.0309,0.0329,
小平 (Kodaira),2014-09-05,07:01～08:00,0.0349,0.0309,0.0332,
小平 (Kodaira),2014-09-05,06:01～07:00,0.0349,0.0310,0.0333,
小平 (Kodaira),2014-09-05,05:01～06:00,0.0353,0.0309,0.0331,
小平 (Kodaira),2014-09-05,04:01～05:00,0.0352,0.0303,0.0330,
小平 (Kodaira),2014-09-05,03:01～04:00,0.0346,0.0299,0.0328,
小平 (Kodaira),2014-09-05,02:01～03:00,0.0356,0.0310,0.0330,
小平 (Kodaira),2014-09-05,01:01～02:00,0.0350,0.0302,0.0328,
小平 (Kodaira),2014-09-05,00:01～01:00,0.0341,0.0290,0.0322,
小平 (Kodaira),2014-09-04,23:01～24:00,0.0345,0.0300,0.0323,
小平 (Kodaira),2014-09-04,22:01～23:00,0.0339,0.0302,0.0323,
小平 (Kodaira),2014-09-04,21:01～22:00,0.0344,0.0305,0.0322,
小平 (Kodaira),2014-09-04,20:01～21:00,0.0347,0.0307,0.0321,
小平 (Kodaira),2014-09-04,19:01～20:00,0.0344,0.0303,0.0323,
小平 (Kodaira),2014-09-04,18:01～19:00,0.0355,0.0298,0.0321,
小平 (Kodaira),2014-09-04,17:01～18:00,0.0342,0.0303,0.0324,
小平 (Kodaira),2014-09-04,16:01～17:00,0.0344,0.0300,0.0322,
小平 (Kodaira),2014-09-04,15:01～16:00,0.0344,0.0302,0.0323,
小平 (Kodaira),2014-09-04,14:01～15:00,0.0343,0.0304,0.0323,
小平 (Kodaira),2014-09-04,13:01～14:00,0.0348,0.0299,0.0324,
小平 (Kodaira),2014-09-04,12:01～13:00,0.0342,0.0299,0.0324,
小平 (Kodaira),2014-09-04,11:01～12:00,0.0348,0.0298,0.0323,
小平 (Kodaira),2014-09-04,10:01～11:00,0.0343,0.0299,0.0323,
小平 (Kodaira),2014-09-04,09:01～10:00,0.0348,0.0306,0.0325,
小平 (Kodaira),2014-09-04,08:01～09:00,0.0349,0.0314,0.0328,
小平 (Kodaira),2014-09-04,07:01～08:00,0.0350,0.0301,0.0324,
小平 (Kodaira),2014-09-04,06:01～07:00,0.0351,0.0307,0.0324,
小平 (Kodaira),2014-09-04,05:01～06:00,0.0338,0.0303,0.0322,
小平 (Kodaira),2014-09-04,04:01～05:00,0.0342,0.0306,0.0325,
小平 (Kodaira),2014-09-04,03:01～04:00,0.0346,0.0306,0.0324,
小平 (Kodaira),2014-09-04,02:01～03:00,0.0347,0.0300,0.0323,
小平 (Kodaira),2014-09-04,01:01～02:00,0.0337,0.0294,0.0322,
小平 (Kodaira),2014-09-04,00:01～01:00,0.0349,0.0306,0.0324,
小平 (Kodaira),2014-09-03,23:01～24:00,0.0343,0.0304,0.0324,
小平 (Kodaira),2014-09-03,22:01～23:00,0.0343,0.0299,0.0323,
小平 (Kodaira),2014-09-03,21:01～22:00,0.0348,0.0301,0.0323,
小平 (Kodaira),2014-09-03,20:01～21:00,0.0346,0.0300,0.0321,
小平 (Kodaira),2014-09-03,19:01～20:00,0.0343,0.0307,0.0325,
小平 (Kodaira),2014-09-03,18:01～19:00,0.0339,0.0304,0.0321,
小平 (Kodaira),2014-09-03,17:01～18:00,0.0340,0.0299,0.0321,
小平 (Kodaira),2014-09-03,16:01～17:00,0.0341,0.0301,0.0323,
小平 (Kodaira),2014-09-03,15:01～16:00,0.0346,0.0302,0.0324,
小平 (Kodaira),2014-09-03,14:01～15:00,0.0337,0.0305,0.0322,
小平 (Kodaira),2014-09-03,13:01～14:00,0.0349,0.0307,0.0323,
小平 (Kodaira),2014-09-03,12:01～13:00,0.0336,0.0305,0.0322,
小平 (Kodaira),2014-09-03,11:01～12:00,0.0338,0.0301,0.0320,
小平 (Kodaira),2014-09-03,10:01～11:00,0.0341,0.0299,0.0321,
小平 (Kodaira),2014-09-03,09:01～10:00,0.0340,0.0306,0.0321,
小平 (Kodaira),2014-09-03,08:01～09:00,0.0341,0.0299,0.0322,
小平 (Kodaira),2014-09-03,07:01～08:00,0.0344,0.0299,0.0321,
小平 (Kodaira),2014-09-03,06:01～07:00,0.0336,0.0299,0.0319,
小平 (Kodaira),2014-09-03,05:01～06:00,0.0336,0.0302,0.0321,
小平 (Kodaira),2014-09-03,04:01～05:00,0.0337,0.0305,0.0321,
小平 (Kodaira),2014-09-03,03:01～04:00,0.0343,0.0297,0.0321,
小平 (Kodaira),2014-09-03,02:01～03:00,0.0341,0.0298,0.0320,
小平 (Kodaira),2014-09-03,01:01～02:00,0.0346,0.0292,0.0320,
小平 (Kodaira),2014-09-03,00:01～01:00,0.0343,0.0308,0.0322,
小平 (Kodaira),2014-09-02,23:01～24:00,0.0338,0.0302,0.0321,
小平 (Kodaira),2014-09-02,22:01～23:00,0.0341,0.0299,0.0323,
小平 (Kodaira),2014-09-02,21:01～22:00,0.0345,0.0304,0.0321,
小平 (Kodaira),2014-09-02,20:01～21:00,0.0339,0.0300,0.0322,
小平 (Kodaira),2014-09-02,19:01～20:00,0.0340,0.0299,0.0322,
小平 (Kodaira),2014-09-02,18:01～19:00,0.0335,0.0304,0.0321,
小平 (Kodaira),2014-09-02,17:01～18:00,0.0346,0.0302,0.0324,
小平 (Kodaira),2014-09-02,16:01～17:00,0.0347,0.0305,0.0325,
小平 (Kodaira),2014-09-02,15:01～16:00,0.0340,0.0303,0.0323,
小平 (Kodaira),2014-09-02,14:01～15:00,0.0341,0.0303,0.0324,
小平 (Kodaira),2014-09-02,13:01～14:00,0.0345,0.0305,0.0324,
小平 (Kodaira),2014-09-02,12:01～13:00,0.0343,0.0302,0.0327,
小平 (Kodaira),2014-09-02,11:01～12:00,0.0346,0.0305,0.0326,
小平 (Kodaira),2014-09-02,10:01～11:00,0.0348,0.0302,0.0326,
小平 (Kodaira),2014-09-02,09:01～10:00,0.0348,0.0307,0.0328,
小平 (Kodaira),2014-09-02,08:01～09:00,0.0358,0.0313,0.0335,
小平 (Kodaira),2014-09-02,07:01～08:00,0.0361,0.0315,0.0341,
小平 (Kodaira),2014-09-02,06:01～07:00,0.0365,0.0319,0.0336,
小平 (Kodaira),2014-09-02,05:01～06:00,0.0346,0.0308,0.0327,
小平 (Kodaira),2014-09-02,04:01～05:00,0.0358,0.0309,0.0326,
小平 (Kodaira),2014-09-02,03:01～04:00,0.0346,0.0307,0.0325,
小平 (Kodaira),2014-09-02,02:01～03:00,0.0345,0.0309,0.0326,
小平 (Kodaira),2014-09-02,01:01～02:00,0.0383,0.0319,0.0351,
小平 (Kodaira),2014-09-02,00:01～01:00,0.0418,0.0345,0.0372,
小平 (Kodaira),2014-09-01,23:01～24:00,0.0370,0.0320,0.0350,
小平 (Kodaira),2014-09-01,22:01～23:00,0.0449,0.0349,0.0383,
小平 (Kodaira),2014-09-01,21:01～22:00,0.0480,0.0397,0.0437,
小平 (Kodaira),2014-09-01,20:01～21:00,0.0451,0.0385,0.0413,
小平 (Kodaira),2014-09-01,19:01～20:00,0.0431,0.0350,0.0384,
小平 (Kodaira),2014-09-01,18:01～19:00,0.0430,0.0348,0.0382,
小平 (Kodaira),2014-09-01,17:01～18:00,0.0449,0.0367,0.0403,
小平 (Kodaira),2014-09-01,16:01～17:00,0.0453,0.0367,0.0411,
小平 (Kodaira),2014-09-01,15:01～16:00,0.0482,0.0407,0.0444,
小平 (Kodaira),2014-09-01,14:01～15:00,0.0442,0.0339,0.0390,
小平 (Kodaira),2014-09-01,13:01～14:00,0.0367,0.0305,0.0332,
小平 (Kodaira),2014-09-01,12:01～13:00,0.0360,0.0299,0.0323,
小平 (Kodaira),2014-09-01,11:01～12:00,0.0352,0.0316,0.0333,
小平 (Kodaira),2014-09-01,10:01～11:00,0.0362,0.0317,0.0337,
小平 (Kodaira),2014-09-01,09:01～10:00,0.0347,0.0301,0.0326,
小平 (Kodaira),2014-09-01,08:01～09:00,0.0346,0.0301,0.0324,
小平 (Kodaira),2014-09-01,07:01～08:00,0.0356,0.0313,0.0332,
小平 (Kodaira),2014-09-01,06:01～07:00,0.0388,0.0332,0.0356,
小平 (Kodaira),2014-09-01,05:01～06:00,0.0375,0.0331,0.0356,
小平 (Kodaira),2014-09-01,04:01～05:00,0.0343,0.0305,0.0325,
小平 (Kodaira),2014-09-01,03:01～04:00,0.0351,0.0308,0.0327,
小平 (Kodaira),2014-09-01,02:01～03:00,0.0343,0.0307,0.0325,
小平 (Kodaira),2014-09-01,01:01～02:00,0.0343,0.0297,0.0323,
小平 (Kodaira),2014-09-01,00:01～01:00,0.0344,0.0301,0.0322,
